C/2022 A2 ( PanSTARRS )

Japanese version
Home page
Updated on January 29, 2023

---------------------------------------------------------------------

* Profile

Discovery Date January 10, 2022
Magnitude 20.5 mag
Discoverer Pan-STARRS 2 telescope (Haleakala)

* Pictures

* Orbital Elements

Epoch 2023 Feb. 25.0 TT = JDT 2460000.5
T 2023 Feb. 18.26709 TT                                 Rudenko
q   1.7352867            (2000.0)            P               Q
z  -0.0001839      Peri.   88.36710     +0.01740209     +0.99011788
 +/-0.0000004      Node   171.57947     -0.09144837     -0.13701528
e   1.0003192      Incl.  108.14709     +0.99565775     -0.02988973
>From 630 observations 2022 Jan. 9-Dec. 23, mean residual 0".4.

* Finding Charts

* Magnitudes Graph

        m1 = 4.0 + 5 log d + 18.0 log r

---------------------------------------------------------------------

The orbital elements are published on M.P.E.C. 2022-Y114.
The charts are made with StellaNavigator Ver.10 (AstroArts).
The magnitudes graphs are made with Comet for Windows.

---------------------------------------------------------------------

Copyright(C) Seiichi Yoshida (comet@aerith.net). All rights reserved.